Weather Roundup
Issued by NWS Springfield, MO

Home | Current Version | Previous Version | Text Only | Print | Product List | Glossary On
Versions: 1 2 3 4 5 6 7 8 9 10 11 12 13 14 15 16 17 18 19 20 21 22 23 24 25 26 27 28 29 30 31 32 33 34 35 36 37 38 39 40 41 42 43 44 45 46 47 48 49 50
000
NZUS99 KSGF 030907
HRRSGF

HOURLY WEATHER
NATIONAL WEATHER SERVICE SPRINGFIELD MO
400 AM CDT SUN MAY 03 2015

......SGF CWA......

CITY           SKY/WX    TMP DP  RH WIND       PRES   REMARKS
SPRINGFIELD    PTCLDY    59  48  67 S12       29.96F
JOPLIN         PTCLDY    62  50  64 S10       29.93F
WEST PLAINS    PTCLDY    60  42  51 S6        30.03F
ROLLA          CLOUDY    61  45  55 S10       29.97F
OSAGE BEACH    CLOUDY    57  45  62 SE7       29.96F
BRANSON        PTCLDY    61  48  63 CALM      30.01S

......SURROUNDING SGF CWA......

CITY           SKY/WX    TMP DP  RH WIND       PRES   REMARKS
CHANUTE        CLEAR     62  53  72 S13       29.90F
PARSONS        PTCLDY    61  53  75 S6        29.92F
COFFEYVILLE    PTCLDY    59  52  77 S7        29.91F
EMPORIA        MOCLDY    61  53  75 S14       29.85S
GROVE OK       CLEAR     63  52  67 S7        29.96S
ROGERS AR      CLEAR     57  50  77 SE6       30.00S
SILOAM SPRINGS CLEAR     57  46  67 S7        29.99S
HARRISON AR    CLEAR     54  48  80 S3        30.02F
NEAR YELLVILLE CLEAR     57  46  67 S3        30.00F

......KANSAS AND MISSOURI......

CITY           SKY/WX    TMP DP  RH WIND       PRES   REMARKS
KANSAS CTY INT CLOUDY    66  53  63 S15G24    29.86R
DOWNTOWN KC    CLOUDY    68  52  56 S13       29.85F
COLUMBIA       CLOUDY    58  46  64 S8        29.95F
SEDALIA        CLOUDY    61  51  70 S9        29.94S
ST JOSEPH      CLOUDY    64  53  67 S10       29.83S
ST LOUIS       CLOUDY    67  43  41 S6        29.99F
SPIRIT OF STL  CLOUDY    63  43  48 SW5       29.98S
KIRKSVILLE     CLOUDY    57  50  77 S9        29.91F
WICHITA        CLOUDY    64  55  72 S13       29.84F
TOPEKA         CLOUDY    68  54  60 SW10      29.86R THUNDER
OLATHE         MOCLDY    63  52  67 S12       29.86F

......TENNESSEE......

CITY           SKY/WX    TMP DP  RH WIND       PRES   REMARKS
MEMPHIS        CLEAR     57  46  66 CALM      30.05R
NASHVILLE      CLEAR     52  49  89 CALM      30.09R

......ARKANSAS.......

CITY           SKY/WX    TMP DP  RH WIND       PRES   REMARKS
FAYETTEVILLE   CLEAR     51  51 100 CALM      30.00F
FT SMITH       CLEAR     58  52  80 NE5       29.98F
LITTLE ROCK    CLEAR     57  48  72 CALM      30.04R

......OKLAHOMA.......

CITY           SKY/WX    TMP DP  RH WIND       PRES   REMARKS
TULSA          MOCLDY    66  52  60 S14       29.91S
PONCA CITY     MOCLDY    66  56  70 S10G18    29.88S
MCALESTER      PTCLDY    63  52  67 S3        29.97S
OKLAHOMA CITY  MOCLDY    63  54  72 S12       29.92S

......IOWA............

CITY           SKY/WX    TMP DP  RH WIND       PRES   REMARKS
DES MOINES     CLOUDY    61  53  75 S16       29.81F
QUAD CITIES    MOCLDY    63  45  51 S10       29.92S

......ILLINOIS........

CITY           SKY/WX    TMP DP  RH WIND       PRES   REMARKS
QUINCY         PTCLDY    60  46  59 S7        29.94S
CHICAGO        CLOUDY    59  42  53 S6        29.96S



USA.gov is the U.S. government's official web portal to all federal, state and local government web resources and services.